FW0887 Weather Reports


Display with metric or nautical units.
time (UTC)temp
F
wind
direction
speed
MPH
gust
MPH
rain 1hr
in
rain 24hr
in
rain mn
in
humidity
%
barometer
mb
20260831153041 72 219 4.0 13.0 0.00 0.26 0.26 61 1014.8
20260831151541 73 265 1.0 14.0 0.00 0.26 0.26 65 1014.9
20260831150041 73 191 6.0 11.0 0.00 0.26 0.26 64 1015.0
20260831145803 74 203 8.0 10.0 0.00 0.26 0.26 62 1016.6
20260831144539 73 219 5.0 10.0 0.00 0.26 0.26 63 1015.3
20260831143039 73 222 6.0 12.0 0.00 0.26 0.26 62 1015.2
20260831141540 74 207 8.0 14.0 0.00 0.26 0.26 61 1015.3
20260831140136 73 198 3.0 9.0 0.00 0.26 0.26 65 1015.3
20260831135832 73 248 2.0 2.0 0.00 0.26 0.26 66 1016.8
20260831134536 72 277 4.0 10.0 0.00 0.26 0.26 65 1015.5
20260831133036 70 225 5.0 16.0 0.00 0.26 0.26 66 1015.6
20260831131533 70 207 2.0 16.0 0.00 0.26 0.26 65 1015.7
20260831130033 72 243 8.0 17.0 0.00 0.26 0.26 61 1015.6
20260831125804 74 203 5.0 11.0 0.00 0.26 0.26 63 1017.0
20260831124536 73 293 6.0 16.0 0.00 0.26 0.26 63 1015.6
20260831123030 73 259 3.0 15.0 0.00 0.26 0.26 66 1015.6
20260831121529 72 199 5.0 15.0 0.00 0.26 0.26 66 1015.5
20260831120031 72 200 3.0 21.0 0.00 0.26 0.26 68 1015.6
20260831115843 72 248 1.0 2.0 0.00 0.26 0.26 71 1016.9
20260831114523 71 205 7.0 17.0 0.00 0.26 0.26 69 1015.4
20260831113023 71 198 3.0 11.0 0.00 0.26 0.26 69 1015.6
20260831111528 69 226 2.0 15.0 0.00 0.26 0.26 75 1015.6
20260831110018 69 290 2.0 9.0 0.00 0.26 0.26 76 1015.5
20260831105813 68 270 2.0 3.0 0.00 0.26 0.26 78 1016.8
20260831104522 67 267 1.0 9.0 0.00 0.26 0.26 79 1015.5
20260831103035 67 252 1.0 4.0 0.00 0.26 0.26 77 1015.5
20260831101512 67 278 1.0 11.0 0.00 0.26 0.26 80 1015.6
20260831100011 65 217 4.0 12.0 0.00 0.26 0.26 82 1015.7
20260831095921 66 293 1.0 2.0 0.00 0.26 0.26 83 1017.2
20260831094515 65 216 2.0 10.0 0.00 0.26 0.26 83 1015.7
20260831093005 64 229 2.0 16.0 0.00 0.26 0.26 86 1015.7
20260831091504 63 276 1.0 11.0 0.00 0.26 0.26 89 1015.8
20260831090004 64 223 3.0 10.0 0.00 0.26 0.26 91 1015.8
20260831085848 64 203 1.0 3.0 0.00 0.26 0.26 92 1016.9
20260831084559 63 236 1.0 10.0 0.00 0.26 0.26 92 1015.6
20260831083058 63 240 1.0 8.0 0.00 0.26 0.26 93 1015.5
20260831081557 63 272 1.0 8.0 0.00 0.26 0.26 93 1015.2
20260831080105 63 225 3.0 11.0 0.00 0.26 0.26 93 1015.2
20260831075719 63 225 2.0 4.0 0.00 0.26 0.26 93 1016.6
20260831074552 62 269 2.0 9.0 0.00 0.26 0.26 94 1015.3
20260831073051 62 221 3.0 11.0 0.00 0.26 0.26 93 1015.1
20260831071549 61 218 2.0 5.0 0.00 0.26 0.26 93 1015.0
20260831070048 61 210 2.0 4.0 0.00 0.26 0.26 93 1014.9
20260831065750 61 225 3.0 4.0 0.00 0.26 0.26 93 1016.1
20260831064548 60 194 2.0 6.0 0.00 0.26 0.26 93 1014.8
20260831063048 60 208 1.0 4.0 0.00 0.26 0.26 93 1014.8
20260831061547 60 192 1.0 5.0 0.01 0.26 0.26 93 1014.6
20260831060046 60 209 2.0 4.0 0.02 0.26 0.26 93 1014.4
20260831055720 60 203 2.0 3.0 0.02 0.26 0.26 92 1015.8
20260831054545 60 213 0.0 2.0 0.02 0.26 0.26 92 1014.4
20260831053045 59 213 0.0 3.0 0.04 0.26 0.26 92 1014.3
20260831051546 59 213 0.0 2.0 0.04 0.25 0.25 92 1014.1
20260831050043 59 225 0.0 3.0 0.06 0.24 0.24 92 1014.1
20260831045817 60 180 1.0 4.0 0.09 0.24 0.24 92 1015.5
20260831044544 59 147 1.0 4.0 0.12 0.24 0.24 92 1013.9
20260831043042 59 184 1.0 5.0 0.22 0.22 0.22 92 1014.1
20260831041559 59 192 2.0 5.0 0.21 0.21 0.21 92 1014.1
20260831040042 59 194 2.0 4.0 0.19 0.19 0.19 91 1014.4
20260831035747 59 203 5.0 7.0 0.15 0.15 0.15 92 1016.1
20260831034542 59 211 6.0 17.0 0.13 0.13 0.13 92 1014.6
20260831033039 56 221 0.0 0.0 0.00 0.00 0.00 90 1012.5
20260831031543 56 221 0.0 0.0 0.00 0.00 0.00 89 1012.3
20260831030036 56 221 0.0 0.0 0.00 0.00 0.00 89 1012.6
20260831025657 57 0.0 0.0 0.00 0.00 0.00 89 1014.6
20260831024534 56 221 0.0 0.0 0.00 0.00 0.00 89 1013.0
20260831023033 56 221 0.0 0.0 0.00 0.00 0.00 88 1013.0
20260831021533 56 221 0.0 0.0 0.00 0.00 0.00 88 1012.8
20260831020031 56 221 0.0 0.0 0.00 0.00 0.00 88 1013.2
20260831015729 57 0.0 0.0 0.00 0.00 0.00 88 1015.3
20260831014528 56 221 0.0 0.0 0.00 0.00 0.00 88 1013.7
20260831013027 57 221 0.0 0.0 0.00 0.00 0.00 88 1013.7
20260831011526 57 221 0.0 0.0 0.00 0.00 0.00 87 1013.7
20260831010032 57 221 0.0 0.0 0.00 0.00 0.00 87 1014.1
20260831005658 58 0.0 0.0 0.00 0.00 0.00 87 1015.7
20260831004521 57 221 0.0 0.0 0.00 0.00 0.00 87 1014.1
20260831003021 57 221 0.0 0.0 0.00 0.00 0.00 87 1014.3
20260831001519 58 221 0.0 0.0 0.00 0.00 0.00 86 1014.4
20260831000023 58 221 0.0 0.0 0.00 0.00 0.00 85 1014.4
20260830235728 59 0.0 0.0 0.00 0.00 0.00 85 1016.0
20260830234529 58 221 0.0 0.0 0.00 0.00 0.00 85 1014.5
20260830233013 59 221 0.0 0.0 0.00 0.00 0.00 84 1014.5
20260830231511 59 221 0.0 0.0 0.00 0.00 0.00 84 1014.6
20260830230018 59 221 0.0 0.0 0.00 0.00 0.00 83 1014.7
20260830225755 60 0.0 0.0 0.00 0.00 0.00 83 1016.2
20260830224506 60 221 0.0 0.0 0.00 0.00 0.00 82 1014.6
20260830223004 61 221 0.0 0.0 0.00 0.00 0.00 82 1014.7
20260830221504 61 221 0.0 0.0 0.00 0.00 0.00 81 1014.6
20260830220100 62 221 0.0 0.0 0.00 0.00 0.00 79 1014.7
20260830215700 63 0.0 0.0 0.00 0.00 0.00 79 1016.3
20260830214600 63 221 0.0 0.0 0.00 0.00 0.00 78 1014.7
20260830213058 64 221 0.0 0.0 0.00 0.00 0.00 77 1014.8
20260830211558 65 221 0.0 0.0 0.00 0.00 0.00 76 1014.6
20260830210058 65 221 0.0 0.0 0.00 0.00 0.00 77 1014.6
20260830205630 65 0.0 0.0 0.00 0.00 0.00 77 1016.3
20260830204604 65 221 0.0 0.0 0.00 0.00 0.00 77 1014.7
20260830203056 65 221 0.0 0.0 0.00 0.00 0.00 78 1014.7
20260830201610 65 221 0.0 0.0 0.00 0.00 0.00 78 1014.7
20260830200100 65 221 0.0 0.0 0.00 0.00 0.00 77 1014.7
20260830195712 67 0.0 0.0 0.00 0.00 0.00 75 1016.1
20260830194607 66 221 0.0 0.0 0.00 0.00 0.00 75 1014.7
20260830193107 67 221 0.0 0.0 0.00 0.00 0.00 73 1014.7
20260830191600 68 221 0.0 0.0 0.00 0.00 0.00 73 1014.7
20260830190054 68 221 0.0 3.0 0.00 0.00 0.00 72 1014.7
20260830185642 69 225 1.0 3.0 0.00 0.00 0.00 71 1016.1
20260830184552 68 221 1.0 2.0 0.00 0.00 0.00 71 1014.6
20260830183052 69 221 0.0 2.0 0.00 0.00 0.00 70 1014.4
20260830181555 69 221 0.0 0.0 0.00 0.00 0.00 71 1014.3
20260830180058 70 221 0.0 1.0 0.00 0.00 0.00 71 1014.2
20260830175608 71 0.0 0.0 0.00 0.00 0.00 70 1015.5
20260830174556 71 221 0.0 3.0 0.00 0.00 0.00 70 1014.0
20260830173104 71 221 3.0 6.0 0.00 0.00 0.00 69 1014.1
20260830171550 72 221 1.0 5.0 0.00 0.00 0.00 68 1014.1
20260830170050 72 209 2.0 6.0 0.00 0.00 0.00 67 1014.0
20260830165646 73 225 4.0 5.0 0.00 0.00 0.00 65 1015.5
20260830164558 73 215 4.0 9.0 0.00 0.00 0.00 65 1013.9
20260830163104 73 217 4.0 8.0 0.00 0.00 0.00 64 1014.0
20260830161548 74 215 6.0 10.0 0.00 0.00 0.00 64 1014.0
20260830160047 75 214 4.0 11.0 0.00 0.00 0.00 63 1014.1
20260830155718 76 203 4.0 6.0 0.00 0.00 0.00 63 1015.7
20260830154547 75 209 3.0 12.0 0.00 0.00 0.00 62 1014.0